View from above orbital plane
|
View from above satellite
|
Ground track
|
The orbit data is extracted from the following two-line orbital elements,
1 37372U 11009A 21025.62206278 -.00000028 00000-0 00000-0 0 9997
2 37372 65.9163 20.3368 0010462 235.2006 278.9712 2.13107350 77144
Epoch (UTC): | 25 January 2021 14:55:46 |
Eccentricity: | 0.0010462 |
inclination: | 65.9163° |
perigee height: | 19102 km |
apogee height: | 19156 km |
right ascension of ascending node: | 20.3368° |
argument of perigee: | 235.2006° |
revolutions per day: | 2.13107350 |
mean anomaly at epoch: | 278.9712° |
orbit number at epoch: | 7714 |
The dashed part of the orbit path shows where the satellite is in the earth's shadow,
|
|